Location: Barrio Las Umbrías
(40.4173°N, 4.8685°W)
Time: 13:37:34
(UTC+00:00)

Cosmos 292 Rocket - Pass Details

Date: 17 August 2022
Orbit: 672 x 693 km, 74.1° (Epoch: 27 September)

Event Time Altitude Azimuth Distance (km) Brightness Sun altitude
Rises 20:21:06 0° 343° (NNW) 3,075 7.9 -12.5°
Reaches altitude 10° 20:23:27 10° 346° (NNW) 2,156 7.0 -12.8°
Maximum altitude 20:28:17 68° 69° (ENE) 749 3.8 -13.6°
Enters shadow 20:31:51 18° 150° (SSE) 1,665 5.2 -14.2°
